[[{"header":{"parameterUnit":"m.s-1","parameterCategory":1,"la1":30.2991,"la2":30.254,"lo1":-89.0895,"lo2":-89.0444,"dy":0.0017,"dx":0.0017,"nx":28,"ny":28,"refTime":"2025-07-03T09:00:00:Z","depth":0,"parameterNumber":2,"parameterNumberName":"U-component_of_WINDS"},"data":[0,0,0,0,0,0,0,0,0,0,0,0,0,0,0,0,0,0,0,0,0,0,0,0,0,0,0,0,0,0,0,0,0,0,0,0,0,0,0,0,0,0,0,0,0,0,0,0,0,0,0,0,0,0,0,0,0,0,0.9486,0.9487,0,0.9559,0.956,0.9561,0.9578,0.9578,0.9577,0.9577,0.9655,0.9657,0.966,0,0,0,0,0,0,0,0,0,0,0,0,0,0.9365,0.9367,0.9486,0.9487,0.9488,0.9559,0.956,0.9561,0.9578,0.9578,0.9577,0.9576,0.9654,0.9657,0.966,0,0,0,0,0,0,0,0,0,0,0,0,0,0.9426,0.9367,0.9486,0.9505,0.9507,0.9559,0.956,0.9561,0.9578,0.9578,0.9577,0.9576,0.9653,0.9657,0.966,0.9699,0,0,0.9672,0.9674,0,0,0,0,0,0,0,0,0.9422,0.943,0.9501,0.9504,0.9506,0.9559,0.9546,0.9608,0.9579,0.9551,0.9577,0.9576,0.9624,0.963,0.9645,0.9703,0.9706,0.9672,0.9675,0.9676,0.9677,0,0,0,0,0,0,0,0.9418,0.9427,0.9515,0.9502,0.9505,0.9511,0.9519,0.9558,0.9591,0.9554,0.9555,0.9563,0.9625,0.9642,0.9647,0.9707,0.9672,0.9676,0.9678,0.968,0.9802,0.9803,0,0,0,0,0,0,0.941,0.9423,0.9513,0.9517,0.9461,0.9514,0.9523,0.9543,0.9591,0.9597,0.9564,0.9564,0.9635,0.9643,0.965,0.97,0.9676,0.968,0.9682,0.9801,0.9802,0.9803,0,0,0,0,0,0,0.9407,0.9418,0.951,0.9471,0.9483,0.9517,0.9539,0.9545,0.9561,0.9598,0.9605,0.9575,0.9635,0.9645,0.9687,0.9703,0.9682,0.9685,0.98,0.9802,0.9803,0.9798,0,0,0,0,0,0,0.9404,0.9417,0.9431,0.9471,0.9485,0.9544,0.954,0.9547,0.9567,0.9568,0.961,0.9616,0.9635,0.9681,0.9691,0.9707,0.9688,0.9799,0.9801,0.9802,0.9797,0.98,0.9801,0,0,0,0,0,0.9399,0.9427,0.9431,0.9442,0.9503,0.9545,0.9553,0.9574,0.9569,0.9584,0.9608,0.9615,0.9699,0.9685,0.9696,0.9714,0.9798,0.98,0.9802,0.9796,0.9799,0.9801,0,0,0,0,0,0,0.9389,0.9432,0.9438,0.9479,0.9508,0.9548,0.9568,0.9576,0.9608,0.9607,0.9632,0.9641,0.9682,0.9703,0.9686,0.9755,0.9749,0.9753,0.974,0.9743,0.9745,0.974,0.9691,0,0,0,0,0,0.9391,0.942,0.9457,0.949,0.9505,0.9534,0.9553,0.9566,0.9597,0.961,0.9637,0.9668,0.9702,0.9724,0.9757,0.98,0.9811,0.9818,0.982,0.9822,0.9826,0.9852,0.9856,0.9811,0.9811,0.981,0,0,0.9396,0.9424,0.9441,0.9489,0.9513,0.9544,0.9544,0.9577,0.96,0.9615,0.9657,0.9678,0.9715,0.9758,0.9779,0.9776,0.984,0.9825,0.9825,0.9829,0.9854,0.9858,0.9862,0.9812,0.9812,0.9812,0,0,0.9422,0.9445,0.9476,0.95,0.9536,0.9555,0.9562,0.9601,0.9616,0.9658,0.967,0.9699,0.9756,0.9782,0.9803,0.9839,0.9848,0.985,0.986,0.9885,0.9889,0.9892,0.9906,0.9911,0.9853,0.9853,0.9853,0,0.9424,0.947,0.949,0.9523,0.9544,0.9559,0.9591,0.9613,0.9659,0.9674,0.967,0.9743,0.9769,0.9819,0.9828,0.9844,0.9854,0.9845,0.9887,0.989,0.9894,0.9907,0.9912,0.9853,0.9853,0.9853,0.9853,0,0.9472,0.9504,0.9525,0.9567,0.9591,0.9623,0.9649,0.9671,0.9683,0.9703,0.9746,0.9777,0.9817,0.983,0.9842,0.9883,0.988,0.9881,0.9875,0.9898,0.9911,0.9916,0.9853,0.9853,0.9853,0.9853,0,0,0.9493,0.9547,0.9554,0.9574,0.9615,0.9641,0.9675,0.9713,0.9732,0.9763,0.9793,0.9841,0.9843,0.9866,0.9881,0.9903,0.9931,0.9901,0.9903,0.9907,0.9979,0.9979,0.9984,0.9937,0.9938,0.9938,0.9977,0,0.9524,0.9583,0.9602,0.9652,0.9683,0.9697,0.9726,0.9756,0.9776,0.9806,0.9828,0.9862,0.9861,0.9876,0.9898,0.9923,0.9946,0.992,0.9966,0.9967,0.9956,0.9991,0.999,1.0025,0.9982,0.9983,0.9983,0,0.9568,0.96,0.9652,0.969,0.9704,0.973,0.9767,0.9795,0.9829,0.9843,0.9869,0.9882,0.9919,0.9911,0.9963,0.9945,0.9964,0.998,0.9982,0.9987,0.9977,0.9998,1.0036,1.0041,0.9992,0.9991,0.999,0,0.9579,0.9635,0.9673,0.969,0.9736,0.9754,0.9774,0.9807,0.9829,0.9862,0.9877,0.9914,0.9935,0.9964,0.9988,0.9979,1.0038,1.0031,1.0051,1.0051,1.0063,1.0062,1.0105,1.0075,1.0075,1.0075,1.0075,0,0.9613,0.9644,0.9679,0.9703,0.9739,0.9762,0.9798,0.9819,0.9849,0.9878,0.9893,0.992,0.995,0.9981,1.0,1.0041,1.005,1.0063,1.0067,1.0062,1.006,1.0075,1.0074,1.0076,1.0076,1.0076,1.0075,0,0.9631,0.9655,0.9699,0.9738,0.9749,0.9774,0.9809,0.9834,0.9854,0.9891,0.9901,0.9934,0.9972,0.9998,1.0047,1.006,1.0105,1.0109,1.0093,1.0095,1.0114,1.0112,1.0169,1.0178,1.0141,1.0141,1.0141,0,0.9651,0.9676,0.9718,0.9738,0.9758,0.979,0.9813,0.9837,0.986,0.9902,0.9922,0.9961,0.9993,1.0053,1.0083,1.0121,1.0126,1.0143,1.0132,1.0126,1.0128,1.0126,1.0129,1.0145,1.0146,1.0146,1.0146,0,0.9684,0.9695,0.9726,0.9763,0.9789,0.9819,0.9849,0.9865,0.9895,0.992,0.9959,0.9984,1.0034,1.0073,1.0114,1.0136,1.0147,1.0149,1.0156,1.0151,1.0141,1.0147,1.0098,1.0148,1.0148,1.0148,1.0148,1.0147,0.9704,0.9727,0.9761,0.9796,0.9821,0.9849,0.9874,0.9898,0.993,0.9972,0.9985,1.0025,1.0061,1.0116,1.0139,1.0172,1.0171,1.018,1.0183,1.0185,1.0186,1.0135,1.018,1.018,1.018,1.018,1.018,0,0.9739,0.9761,0.9793,0.9835,0.9863,0.9869,0.9903,0.9926,0.9961,0.9993,1.0024,1.0069,1.0108,1.014,1.0179,1.02,1.0206,1.021,1.0209,1.0214,1.0184,1.0174,1.0204,1.0204,1.0204,1.0204,1.0204,1.0204,0.976,0.98,0.9815,0.9867,0.989,0.9929,0.9948,0.9975,1.0,1.0049,1.0081,1.0101,1.0133,1.0176,1.0211,1.022,1.0234,1.0237,1.0247,1.0219,1.0216,1.0213,1.0204,1.024,1.024,1.0274,1.0275,1.0275]},{"header":{"parameterUnit":"m.s-1","parameterCategory":1,"la1":30.2991,"la2":30.254,"lo1":-89.0895,"lo2":-89.0444,"dy":0.0017,"dx":0.0017,"nx":28,"ny":28,"refTime":"2025-07-03T09:00:00:Z","depth":0,"parameterNumber":3,"parameterNumberName":"V-component_of_WINDS"},"data":[0,0,0,0,0,0,0,0,0,0,0,0,0,0,0,0,0,0,0,0,0,0,0,0,0,0,0,0,0,0,0,0,0,0,0,0,0,0,0,0,0,0,0,0,0,0,0,0,0,0,0,0,0,0,0,0,0,0,-0.3774,-0.3773,0,-0.3735,-0.3734,-0.3734,-0.378,-0.3781,-0.3783,-0.3785,-0.3745,-0.3743,-0.374,0,0,0,0,0,0,0,0,0,0,0,0,0,-0.3889,-0.3887,-0.3774,-0.3773,-0.3773,-0.3735,-0.3734,-0.3734,-0.3779,-0.3781,-0.3783,-0.3785,-0.3746,-0.3743,-0.374,0,0,0,0,0,0,0,0,0,0,0,0,0,-0.3844,-0.3886,-0.3774,-0.3791,-0.3792,-0.3735,-0.3734,-0.3734,-0.3779,-0.3781,-0.3784,-0.3786,-0.3747,-0.3743,-0.3739,-0.3664,0,0,-0.3727,-0.3726,0,0,0,0,0,0,0,0,-0.3846,-0.3839,-0.3789,-0.379,-0.3791,-0.3765,-0.3761,-0.371,-0.3778,-0.3784,-0.3785,-0.3788,-0.375,-0.3746,-0.3733,-0.3662,-0.366,-0.3727,-0.3725,-0.3723,-0.3722,0,0,0,0,0,0,0,-0.3849,-0.3841,-0.3758,-0.3788,-0.3789,-0.3801,-0.3797,-0.3751,-0.3753,-0.3784,-0.3787,-0.3782,-0.3751,-0.3737,-0.3732,-0.366,-0.3727,-0.3724,-0.3721,-0.372,-0.3529,-0.3526,0,0,0,0,0,0,-0.385,-0.3844,-0.376,-0.3757,-0.3825,-0.3797,-0.3793,-0.377,-0.3754,-0.3753,-0.3779,-0.3784,-0.3742,-0.3737,-0.3731,-0.3645,-0.3723,-0.3719,-0.3717,-0.3532,-0.3528,-0.3525,0,0,0,0,0,0,-0.3853,-0.3842,-0.3761,-0.3801,-0.3792,-0.3792,-0.3767,-0.3768,-0.3754,-0.375,-0.3751,-0.3765,-0.3744,-0.3737,-0.3681,-0.3644,-0.3717,-0.3714,-0.3535,-0.3531,-0.3527,-0.3469,0,0,0,0,0,0,-0.3856,-0.3843,-0.3814,-0.38,-0.379,-0.3711,-0.3764,-0.3766,-0.3747,-0.3753,-0.3737,-0.3736,-0.3745,-0.3687,-0.3677,-0.364,-0.3711,-0.3538,-0.3533,-0.3528,-0.3474,-0.3463,-0.3454,0,0,0,0,0,-0.386,-0.3798,-0.3812,-0.3802,-0.3753,-0.3709,-0.3703,-0.3714,-0.3744,-0.3715,-0.3713,-0.3737,-0.3649,-0.3681,-0.367,-0.3631,-0.3541,-0.3534,-0.3529,-0.3479,-0.3466,-0.3454,0,0,0,0,0,0,-0.3807,-0.3797,-0.3812,-0.3744,-0.3727,-0.3717,-0.3681,-0.3699,-0.3673,-0.3679,-0.3695,-0.3691,-0.3632,-0.3626,-0.3661,-0.3559,-0.36,-0.3591,-0.3566,-0.3553,-0.3543,-0.3547,-0.3708,0,0,0,0,0,-0.3787,-0.3752,-0.3745,-0.3686,-0.3676,-0.368,-0.3661,-0.3671,-0.3654,-0.3647,-0.3641,-0.3624,-0.3593,-0.3572,-0.3543,-0.3473,-0.3472,-0.3441,-0.3431,-0.3423,-0.3416,-0.3382,-0.3369,-0.3506,-0.3506,-0.3506,0,0,-0.3746,-0.3736,-0.3713,-0.3675,-0.3663,-0.3627,-0.3673,-0.3633,-0.3607,-0.3641,-0.359,-0.3584,-0.3566,-0.3504,-0.3476,-0.3497,-0.3378,-0.3415,-0.3408,-0.3406,-0.3374,-0.3361,-0.335,-0.3501,-0.3502,-0.3503,0,0,-0.3654,-0.3642,-0.3593,-0.3581,-0.3562,-0.3565,-0.3553,-0.354,-0.3539,-0.3487,-0.3513,-0.3482,-0.3427,-0.3415,-0.3401,-0.3306,-0.3328,-0.3296,-0.3244,-0.3211,-0.32,-0.3191,-0.316,-0.3149,-0.3289,-0.3289,-0.3289,0,-0.3606,-0.3553,-0.3566,-0.3524,-0.3508,-0.3537,-0.3489,-0.3476,-0.3449,-0.3438,-0.3461,-0.3395,-0.3384,-0.3321,-0.3298,-0.3285,-0.3274,-0.3299,-0.3201,-0.3191,-0.3183,-0.3154,-0.3142,-0.3285,-0.3285,-0.3286,-0.3286,0,-0.3496,-0.3459,-0.3422,-0.3396,-0.3375,-0.333,-0.3338,-0.3315,-0.3327,-0.3328,-0.3276,-0.3265,-0.3236,-0.3221,-0.3232,-0.316,-0.3174,-0.3198,-0.324,-0.3166,-0.3139,-0.3128,-0.328,-0.3281,-0.3282,-0.3283,0,0,-0.337,-0.3353,-0.334,-0.333,-0.3313,-0.3285,-0.3242,-0.3214,-0.3196,-0.3176,-0.3142,-0.3096,-0.3119,-0.3103,-0.3113,-0.3083,-0.3013,-0.3112,-0.3112,-0.3097,-0.2937,-0.2921,-0.2908,-0.3027,-0.3025,-0.3023,-0.294,0,-0.3281,-0.3208,-0.3219,-0.3148,-0.3116,-0.3144,-0.3107,-0.3093,-0.3093,-0.3066,-0.3066,-0.3034,-0.3066,-0.3057,-0.3028,-0.3028,-0.2982,-0.3033,-0.2998,-0.2996,-0.3004,-0.2893,-0.2876,-0.2798,-0.2929,-0.2927,-0.2926,0,-0.3167,-0.3145,-0.3072,-0.3062,-0.3049,-0.3016,-0.2992,-0.2965,-0.2951,-0.2953,-0.2936,-0.2952,-0.2911,-0.2952,-0.2897,-0.2932,-0.2918,-0.2915,-0.2913,-0.2912,-0.2959,-0.2893,-0.2773,-0.2762,-0.2909,-0.291,-0.2911,0,-0.3087,-0.3038,-0.2989,-0.2979,-0.2966,-0.2943,-0.2936,-0.2924,-0.2907,-0.2886,-0.2876,-0.285,-0.2837,-0.2817,-0.2826,-0.2854,-0.277,-0.2811,-0.2773,-0.2773,-0.2756,-0.2758,-0.2636,-0.2742,-0.2742,-0.2742,-0.2742,0,-0.2988,-0.2943,-0.2954,-0.2923,-0.2875,-0.2888,-0.2839,-0.2836,-0.2825,-0.2796,-0.2818,-0.279,-0.2802,-0.2776,-0.2782,-0.2738,-0.2731,-0.2733,-0.2736,-0.2733,-0.2733,-0.2726,-0.2733,-0.2739,-0.274,-0.274,-0.2741,0,-0.2891,-0.2896,-0.2845,-0.2837,-0.2834,-0.2798,-0.2792,-0.2765,-0.2767,-0.273,-0.2722,-0.2725,-0.2695,-0.2701,-0.2668,-0.2673,-0.2618,-0.2626,-0.2623,-0.2626,-0.2589,-0.2594,-0.246,-0.2445,-0.2558,-0.2557,-0.2556,0,-0.2829,-0.2795,-0.2784,-0.2766,-0.2759,-0.2729,-0.2713,-0.2724,-0.2707,-0.2689,-0.2664,-0.2636,-0.2615,-0.2566,-0.2566,-0.2541,-0.2551,-0.2506,-0.2547,-0.2546,-0.2554,-0.2557,-0.2555,-0.2498,-0.2497,-0.2496,-0.2495,0,-0.2719,-0.2724,-0.2699,-0.2676,-0.2656,-0.2638,-0.2622,-0.2606,-0.2617,-0.2596,-0.2566,-0.255,-0.2517,-0.249,-0.2468,-0.2462,-0.2481,-0.2482,-0.2472,-0.247,-0.2471,-0.2474,-0.2604,-0.2485,-0.2486,-0.2487,-0.2487,-0.2488,-0.264,-0.2613,-0.2602,-0.2574,-0.2564,-0.2549,-0.2524,-0.2523,-0.2498,-0.2473,-0.2481,-0.2448,-0.2436,-0.2409,-0.24,-0.2375,-0.2392,-0.2377,-0.2374,-0.2371,-0.2368,-0.2473,-0.237,-0.2371,-0.2371,-0.2371,-0.2371,0,-0.2534,-0.2529,-0.2504,-0.2482,-0.2461,-0.248,-0.2464,-0.2445,-0.2416,-0.2403,-0.2382,-0.235,-0.2324,-0.2322,-0.2298,-0.2279,-0.2287,-0.2272,-0.2275,-0.2275,-0.2353,-0.2365,-0.2266,-0.2266,-0.2266,-0.2266,-0.2266,-0.2266,-0.2477,-0.2433,-0.2437,-0.2389,-0.2384,-0.2352,-0.2341,-0.2329,-0.2319,-0.2282,-0.2261,-0.226,-0.2252,-0.2228,-0.2206,-0.2206,-0.2198,-0.218,-0.2184,-0.2258,-0.2268,-0.2279,-0.229,-0.2178,-0.2178,-0.2109,-0.2108,-0.2108]}]]